Home > Weather > Montego Bay > Past weeks

Flag for Jamaica Past Weather in Montego Bay, Jamaica — Yesterday and Last 2 Weeks

Now
90 °F

Passing clouds.


Feels Like: 105 °F
Forecast: 79 / 91 °F
Wind: 17 mph from East

Location: Montego Bay / Sangster

Current Time: Jul 23, 2016 at 2:31:30 PM

Latest Report: Jul 23, 2016 at 2:00 PM


Visibility: N/A

Pressure: 29.95 "Hg

Humidity: 71%

Dew Point: 79 °F

Location of Montego BayLocation

Past Weather in Montego Bay — Graph

°F

Montego Bay Temperature Yesterday

Maximum temperature yesterday: 91 °F (at 10:00 AM)
Minimum temperature yesterday: 77 °F (at 3:45 PM)
Average temperature yesterday: 82 °F

High & Low Weather Summary for the Past Weeks

 TemperatureHumidityPressure
High91 °F (Jul 10, 1:00 PM)94% (Jul 22, 7:00 PM)30.04 "Hg (Jul 22, 7:00 PM)
Low77 °F (Jul 14, 4:00 AM)59% (Jul 10, 1:00 PM)29.89 "Hg (Jul 19, 3:00 PM)
Average84 °F75%29.97 "Hg
* Reported Jul 8 1:00 PM — Jul 23 1:00 PM, Montego Bay, Weather by CustomWeather, © 2016

Note: Actual official high and low records may vary slightly from our data, if they occured in-between our weather recording intervals... More about our weather records

Advertising

Montego Bay Weather History for the Previous 24 Hours

Scroll right to see more
 ConditionsComfort  
Time TempWeatherWind HumidityBarometerVisibility
1:00 PM
Sat, Jul 23
90 °FPassing clouds.14 mph71%29.95 "HgN/A
12:00 PM90 °FPassing clouds.14 mph71%29.95 "HgN/A
11:00 AM90 °FPassing clouds.13 mph67%29.98 "HgN/A
10:00 AM90 °FPassing clouds.10 mph67%29.98 "HgN/A
9:00 AM88 °FPassing clouds.7 mph70%29.98 "HgN/A
8:00 AM84 °FSunny.5 mph74%29.98 "Hg10 mi
7:00 AM81 °FSunny.1 mph84%29.98 "Hg10 mi
6:00 AM79 °FPassing clouds.No wind89%29.95 "HgN/A
5:00 AM79 °FPassing clouds.2 mph89%29.95 "HgN/A
4:00 AM79 °FPassing clouds.3 mph94%29.95 "HgN/A
3:00 AM79 °FPassing clouds.1 mph94%29.95 "HgN/A
2:00 AM79 °FPassing clouds.2 mph94%29.95 "HgN/A
1:00 AM81 °FPassing clouds.2 mph94%29.98 "HgN/A
12:00 AM81 °FPassing clouds.No wind89%29.98 "HgN/A
11:00 PM
Fri, Jul 22
81 °FPassing clouds.1 mph94%29.98 "HgN/A
10:00 PM81 °FPassing clouds.5 mph89%29.98 "HgN/A
9:00 PM81 °FPassing clouds.5 mph94%29.95 "HgN/A
8:00 PM81 °FPassing clouds.1 mph94%29.95 "HgN/A
7:00 PM81 °FPassing clouds.2 mph94%29.95 "HgN/A
6:00 PM81 °FPartly sunny.5 mph89%29.95 "HgN/A
5:00 PM79 °FPartly sunny.1 mph84%29.92 "HgN/A
4:00 PM77 °FThunderstorms. Partly sunny.2 mph79%29.92 "HgN/A
3:45 PM77 °FThunderstorms. Partly sunny.6 mph79%29.92 "HgN/A
3:00 PM79 °FThunderstorms. Broken clouds.10 mph84%29.98 "Hg5 mi
2:00 PM86 °FThunderstorms. Partly sunny.18 mph79%29.95 "HgN/A
Weather by CustomWeather, © 2016

See weather overviewHow to use our weather pages